Location: Minneapolis
(45.0000°N, 93.0000°W)
Time: 09:16:19
(UTC-05:00)

Vanguard 1 Rocket - All Passes

Search period start: 21 June 2018 00:00
Search period end: 01 July 2018 00:00
Orbit: 653 x 4224 km, 34.3° (Epoch: 20 June)

Date Brightness Start Highest point End Pass type
(mag) Time Alt. Az. Time Alt. Az. Time Alt. Az.
21 Jun - 00:32:00 10° WSW 00:37:35 15° SSW 00:44:53 10° S visible
21 Jun - 18:31:35 10° SW 18:35:27 26° SSE 18:40:35 10° ESE daylight
21 Jun - 20:54:44 10° WSW 20:59:54 31° S 21:08:13 10° SE daylight
21 Jun - 23:19:47 10° WSW 23:25:42 19° SSW 23:34:16 10° SSE visible
22 Jun - 17:22:00 10° SSW 17:25:02 18° SSE 17:28:28 10° ESE daylight
22 Jun - 19:44:38 10° WSW 19:49:04 30° S 19:55:40 10° ESE daylight
22 Jun - 22:08:44 10° WSW 22:14:10 23° SSW 22:22:28 10° SSE visible
23 Jun - 16:13:13 10° S 16:14:38 11° SSE 16:16:01 10° SE daylight
23 Jun - 18:34:39 10° SW 18:38:29 26° S 18:43:30 10° ESE daylight
23 Jun - 20:58:13 10° WSW 21:03:00 25° S 21:10:17 10° SE daylight
23 Jun - 23:24:47 10° SW 23:28:47 13° SSW 23:33:49 10° S visible
24 Jun - 17:24:43 10° SW 17:28:01 21° SSE 17:31:44 10° ESE daylight
24 Jun - 19:47:58 10° WSW 19:52:10 26° S 19:58:09 10° SE daylight
24 Jun - 22:12:50 10° WSW 22:17:17 17° SSW 22:23:24 10° SSE visible
25 Jun - 16:14:58 10° SSW 16:17:35 15° SSE 16:20:08 10° SE daylight
25 Jun - 18:37:48 10° SW 18:41:33 25° S 18:46:19 10° ESE daylight
25 Jun - 21:01:55 10° WSW 21:06:08 20° SSW 21:12:03 10° SSE daylight
26 Jun - 15:06:23 10° SSE 15:07:00 10° SSE 15:07:37 10° SSE daylight
26 Jun - 17:27:36 10° SW 17:31:04 22° S 17:34:51 10° ESE daylight
26 Jun - 19:51:25 10° WSW 19:55:16 22° S 20:00:28 10° SE daylight
26 Jun - 22:18:10 10° SW 22:20:25 11° SSW 22:23:02 10° S visible
27 Jun - 16:17:22 10° SSW 16:20:36 18° SSE 16:23:42 10° ESE daylight
27 Jun - 18:41:03 10° WSW 18:44:38 23° S 18:49:02 10° SE daylight
27 Jun - 21:06:04 10° SW 21:09:15 15° SSW 21:13:16 10° SSE daylight
28 Jun - 15:07:11 10° SSW 15:10:03 14° SSE 15:12:34 10° SE daylight
28 Jun - 17:30:37 10° SW 17:34:08 23° S 17:37:53 10° SE daylight
28 Jun - 19:55:06 10° SW 19:58:22 17° SSW 20:02:30 10° SSE daylight
29 Jun - 13:57:36 10° S 13:59:18 11° SSE 14:00:50 10° SE daylight
29 Jun - 16:20:01 10° SW 16:23:40 21° S 16:27:02 10° ESE daylight
29 Jun - 18:44:25 10° WSW 18:47:42 20° S 18:51:35 10° SE daylight
30 Jun - 15:09:13 10° SW 15:13:07 19° S 15:16:20 10° SE daylight
30 Jun - 17:33:43 10° SW 17:37:12 22° S 17:40:48 10° SE daylight
30 Jun - 19:59:18 10° SW 20:01:27 13° SSW 20:03:56 10° S daylight
